AAL1538 KDFW-KMFE

Flight info

Callsign AAL1538
Flight time 1h 13m
Altitude 36000
Route NELYN6 SAT J21 LRD ELIZA V17 FATOR
Aircraft B738/M-SDE2E3FGHIRWXY/LB1

Departure

Time 2026-04-30 18:46
Airport Dallas Fort Worth International Airport (KDFW)

Arrival

Time 2026-04-30 20:00
Airport McAllen Miller International Airport (KMFE)
Time Latitude Longitude Altitude Speed Heading
2026-04-30 18:22 32.90178 -97.03789 615 ft 0 kts 345°
2026-04-30 18:32 32.90136 -97.03776 625 ft 4 kts
2026-04-30 18:33 32.90117 -97.03786 624 ft 4 kts 68°
2026-04-30 18:33 32.90113 -97.03779 614 ft 4 kts 91°
2026-04-30 18:33 32.90113 -97.03758 614 ft 0 kts 91°
2026-04-30 18:36 32.90113 -97.03752 614 ft 4 kts 90°
2026-04-30 18:36 32.90113 -97.03690 622 ft 8 kts 90°
2026-04-30 18:36 32.90112 -97.03446 614 ft 17 kts 90°
2026-04-30 18:37 32.90083 -97.03319 622 ft 17 kts 149°
2026-04-30 18:37 32.89971 -97.03314 623 ft 16 kts 180°
2026-04-30 18:37 32.89852 -97.03315 626 ft 17 kts 180°
2026-04-30 18:37 32.89735 -97.03315 618 ft 16 kts 180°
2026-04-30 18:38 32.89622 -97.03316 615 ft 16 kts 180°
2026-04-30 18:38 32.89514 -97.03316 628 ft 15 kts 180°
2026-04-30 18:38 32.89407 -97.03317 622 ft 16 kts 180°
2026-04-30 18:38 32.89282 -97.03318 628 ft 19 kts 180°
2026-04-30 18:39 32.89155 -97.03319 623 ft 18 kts 180°
2026-04-30 18:39 32.89032 -97.03319 627 ft 18 kts 181°
2026-04-30 18:39 32.88895 -97.03319 622 ft 22 kts 180°
2026-04-30 18:39 32.88731 -97.03320 622 ft 25 kts 180°
2026-04-30 18:40 32.88584 -97.03321 624 ft 20 kts 179°
2026-04-30 18:40 32.88496 -97.03374 622 ft 14 kts 263°
2026-04-30 18:40 32.88496 -97.03523 623 ft 21 kts 269°
2026-04-30 18:40 32.88497 -97.03705 616 ft 22 kts 270°
2026-04-30 18:41 32.88498 -97.03882 615 ft 21 kts 270°
2026-04-30 18:41 32.88498 -97.04057 623 ft 21 kts 271°
2026-04-30 18:41 32.88499 -97.04222 619 ft 20 kts 270°
2026-04-30 18:41 32.88500 -97.04384 623 ft 19 kts 271°
2026-04-30 18:42 32.88502 -97.04541 615 ft 19 kts 271°
2026-04-30 18:42 32.88454 -97.04806 616 ft 17 kts 185°
2026-04-30 18:42 32.88335 -97.04808 615 ft 17 kts 181°
2026-04-30 18:45 32.87974 -97.05482 616 ft 16 kts 359°
2026-04-30 18:45 32.88184 -97.05481 622 ft 60 kts
2026-04-30 18:45 32.88839 -97.05479 619 ft 125 kts
2026-04-30 18:46 32.89870 -97.05484 787 ft 162 kts
2026-04-30 18:46 32.91018 -97.05509 1449 ft 168 kts
2026-04-30 18:46 32.92209 -97.05541 2109 ft 180 kts
2026-04-30 18:46 32.93553 -97.05574 2373 ft 209 kts
2026-04-30 18:47 32.95077 -97.05630 2660 ft 230 kts 358°
2026-04-30 18:47 32.96670 -97.06144 3145 ft 244 kts 342°
2026-04-30 18:47 32.98293 -97.06859 3669 ft 254 kts 342°
2026-04-30 18:47 32.99872 -97.07889 4321 ft 266 kts 318°
2026-04-30 18:48 33.00856 -97.09743 5142 ft 270 kts 286°
2026-04-30 18:48 33.01056 -97.11958 5995 ft 270 kts 266°
2026-04-30 18:48 33.00923 -97.14188 6821 ft 271 kts 264°
2026-04-30 18:48 33.00766 -97.16430 7636 ft 272 kts 264°
2026-04-30 18:49 33.00554 -97.18713 8250 ft 283 kts 262°
2026-04-30 18:49 33.00303 -97.21064 8934 ft 289 kts 262°
2026-04-30 18:49 32.99938 -97.23409 9697 ft 290 kts 247°
2026-04-30 18:49 32.98864 -97.25350 10523 ft 287 kts 229°
2026-04-30 18:50 32.97412 -97.27109 10746 ft 309 kts 225°
2026-04-30 18:50 32.95651 -97.28741 10894 ft 338 kts 209°
2026-04-30 18:50 32.93278 -97.29384 11165 ft 365 kts 184°
2026-04-30 18:50 32.90711 -97.29254 11656 ft 372 kts 181°
2026-04-30 18:51 32.88103 -97.29065 12236 ft 376 kts 181°
2026-04-30 18:51 32.85471 -97.28877 12880 ft 380 kts 182°
2026-04-30 18:51 32.82837 -97.28721 13564 ft 380 kts 184°
2026-04-30 18:51 32.80171 -97.28581 14261 ft 383 kts 184°
2026-04-30 18:52 32.77486 -97.28423 14875 ft 390 kts 182°
2026-04-30 18:52 32.74759 -97.28029 15532 ft 398 kts 178°
2026-04-30 18:52 32.72020 -97.27462 16282 ft 402 kts 176°
2026-04-30 18:52 32.69312 -97.26863 16923 ft 404 kts 177°
2026-04-30 18:53 32.66532 -97.26245 17521 ft 407 kts 178°
2026-04-30 18:53 32.63732 -97.25641 18065 ft 411 kts 178°
2026-04-30 18:53 32.60908 -97.25054 18597 ft 414 kts 179°
2026-04-30 18:53 32.58057 -97.24477 19138 ft 417 kts 179°
2026-04-30 18:54 32.55189 -97.23902 19680 ft 419 kts 179°
2026-04-30 18:54 32.52301 -97.23327 20172 ft 423 kts 179°
2026-04-30 18:54 32.49386 -97.22748 20662 ft 425 kts 179°
2026-04-30 18:54 32.46499 -97.22174 21133 ft 428 kts 179°
2026-04-30 18:55 32.43550 -97.21587 21568 ft 431 kts 179°
2026-04-30 18:55 32.37586 -97.20399 22401 ft 438 kts 179°
2026-04-30 18:55 32.34578 -97.19801 22813 ft 440 kts 179°
2026-04-30 18:56 32.28509 -97.18646 23563 ft 440 kts 184°
2026-04-30 18:56 32.25500 -97.18755 23874 ft 430 kts 194°
2026-04-30 18:56 32.22529 -97.19183 24237 ft 431 kts 195°
2026-04-30 18:57 32.16557 -97.20120 24890 ft 435 kts 195°
2026-04-30 18:57 32.13542 -97.20570 25197 ft 438 kts 195°
2026-04-30 18:57 32.10511 -97.21001 25515 ft 440 kts 195°
2026-04-30 18:58 32.04393 -97.21832 26133 ft 444 kts 195°
2026-04-30 18:58 32.01318 -97.22241 26418 ft 446 kts 195°
2026-04-30 18:58 31.98226 -97.22651 26708 ft 448 kts 195°
2026-04-30 18:59 31.91988 -97.23482 27134 ft 454 kts 195°
2026-04-30 19:00 31.82537 -97.24736 27967 ft 457 kts 195°
2026-04-30 19:00 31.79370 -97.25157 28206 ft 458 kts 195°
2026-04-30 19:00 31.73053 -97.25997 28640 ft 462 kts 195°
2026-04-30 19:01 31.66672 -97.26868 29198 ft 458 kts 198°
2026-04-30 19:01 31.63660 -97.27932 29539 ft 440 kts 211°
2026-04-30 19:02 31.58093 -97.30692 30266 ft 436 kts 210°
2026-04-30 19:02 31.52470 -97.33387 30848 ft 436 kts 210°
2026-04-30 19:03 31.46835 -97.36042 31452 ft 436 kts 210°
2026-04-30 19:03 31.42187 -97.38223 32018 ft 433 kts 210°
2026-04-30 19:04 31.35648 -97.41291 32790 ft 430 kts 210°
2026-04-30 19:04 31.31001 -97.43473 33297 ft 429 kts 211°
2026-04-30 19:05 31.24548 -97.46496 33965 ft 428 kts 211°
2026-04-30 19:05 31.19032 -97.49072 34548 ft 426 kts 211°
2026-04-30 19:06 31.13534 -97.51636 35103 ft 425 kts 211°
2026-04-30 19:06 31.10793 -97.52915 35367 ft 424 kts 211°
2026-04-30 19:06 31.06197 -97.55058 35707 ft 425 kts 211°
2026-04-30 19:07 31.00721 -97.57609 35966 ft 425 kts 211°
2026-04-30 19:07 30.97971 -97.58890 35995 ft 425 kts 211°
2026-04-30 19:08 30.87018 -97.63975 35997 ft 423 kts 211°
2026-04-30 19:09 30.78833 -97.67771 36017 ft 422 kts 210°
2026-04-30 19:09 30.73378 -97.70297 36014 ft 422 kts 210°
2026-04-30 19:10 30.62446 -97.75368 36012 ft 425 kts 211°
2026-04-30 19:11 30.54480 -97.79552 35999 ft 416 kts 219°
2026-04-30 19:12 30.49654 -97.83256 35978 ft 417 kts 220°
2026-04-30 19:12 30.44843 -97.87005 35973 ft 419 kts 220°
2026-04-30 19:13 30.34983 -97.94387 35975 ft 424 kts 220°
2026-04-30 19:14 30.30007 -97.98055 35975 ft 424 kts 220°
2026-04-30 19:14 30.25030 -98.01721 35977 ft 424 kts 219°
2026-04-30 19:15 30.20053 -98.05386 35986 ft 424 kts 219°
2026-04-30 19:15 30.12619 -98.10854 35977 ft 424 kts 220°
2026-04-30 19:16 30.07619 -98.14451 35971 ft 421 kts 219°
2026-04-30 19:17 30.00226 -98.19984 35965 ft 422 kts 219°
2026-04-30 19:17 29.92788 -98.25406 35953 ft 421 kts 219°
2026-04-30 19:18 29.85379 -98.30810 35957 ft 420 kts 219°
2026-04-30 19:19 29.80453 -98.34408 35952 ft 419 kts 219°
2026-04-30 19:19 29.73060 -98.39797 35951 ft 420 kts 219°
2026-04-30 19:20 29.68128 -98.43388 35955 ft 420 kts 219°
2026-04-30 19:21 29.60356 -98.48190 35962 ft 431 kts 209°
2026-04-30 19:22 29.49126 -98.53037 35949 ft 433 kts 209°
2026-04-30 19:23 29.32251 -98.60576 35904 ft 433 kts 209°
2026-04-30 19:24 29.23822 -98.64360 35904 ft 434 kts 209°
2026-04-30 19:25 29.09754 -98.70655 35918 ft 434 kts 209°
2026-04-30 19:26 28.98517 -98.75669 35916 ft 433 kts 209°
2026-04-30 19:27 28.90099 -98.79418 35914 ft 433 kts 209°
2026-04-30 19:28 28.81680 -98.83162 35911 ft 433 kts 209°
2026-04-30 19:29 28.70453 -98.88144 35907 ft 433 kts 209°
2026-04-30 19:30 28.59223 -98.93116 35898 ft 433 kts 209°
2026-04-30 19:31 28.47994 -98.98075 35882 ft 430 kts 209°
2026-04-30 19:31 28.45229 -98.99289 35567 ft 422 kts 209°
2026-04-30 19:31 28.39720 -99.01719 33972 ft 430 kts 208°
2026-04-30 19:32 28.36911 -99.02963 33043 ft 437 kts 208°
2026-04-30 19:32 28.34062 -99.04222 32094 ft 442 kts 208°
2026-04-30 19:32 28.31174 -99.05496 31209 ft 447 kts 207°
2026-04-30 19:32 28.28289 -99.06760 30607 ft 442 kts 207°
2026-04-30 19:33 28.25418 -99.08017 29990 ft 446 kts 207°
2026-04-30 19:33 28.22488 -99.09305 29379 ft 457 kts 207°
2026-04-30 19:33 28.19502 -99.10619 28761 ft 462 kts 207°
2026-04-30 19:33 28.16509 -99.11930 28136 ft 461 kts 207°
2026-04-30 19:34 28.13522 -99.13237 27513 ft 460 kts 207°
2026-04-30 19:34 28.10541 -99.14539 26889 ft 458 kts 207°
2026-04-30 19:34 28.04598 -99.17138 25647 ft 460 kts 207°
2026-04-30 19:35 28.01607 -99.18446 25024 ft 460 kts 207°
2026-04-30 19:35 27.98634 -99.19743 24394 ft 454 kts 207°
2026-04-30 19:35 27.95711 -99.21016 23766 ft 447 kts 207°
2026-04-30 19:35 27.92826 -99.22272 23140 ft 442 kts 207°
2026-04-30 19:36 27.89974 -99.23516 22519 ft 437 kts 207°
2026-04-30 19:36 27.87151 -99.24747 21895 ft 433 kts 207°
2026-04-30 19:36 27.81185 -99.25673 20930 ft 442 kts 178°
2026-04-30 19:37 27.78209 -99.24935 20664 ft 436 kts 167°
2026-04-30 19:37 27.75448 -99.23557 20408 ft 430 kts 158°
2026-04-30 19:37 27.72845 -99.21984 20153 ft 419 kts 157°
2026-04-30 19:37 27.70320 -99.20414 19898 ft 409 kts 156°
2026-04-30 19:38 27.67857 -99.18880 19636 ft 400 kts 157°
2026-04-30 19:38 27.65421 -99.17376 19390 ft 402 kts 157°
2026-04-30 19:38 27.62929 -99.15858 19160 ft 410 kts 157°
2026-04-30 19:38 27.60447 -99.14355 18914 ft 409 kts 157°
2026-04-30 19:39 27.57917 -99.12827 18659 ft 406 kts 157°
2026-04-30 19:39 27.55443 -99.11334 18525 ft 400 kts 157°
2026-04-30 19:39 27.52998 -99.09861 18397 ft 398 kts 157°
2026-04-30 19:39 27.50540 -99.08386 18271 ft 402 kts 157°
2026-04-30 19:40 27.48064 -99.06902 18159 ft 403 kts 157°
2026-04-30 19:40 27.45593 -99.05419 18029 ft 401 kts 157°
2026-04-30 19:40 27.43135 -99.03945 17898 ft 400 kts 157°
2026-04-30 19:40 27.40686 -99.02476 17788 ft 399 kts 157°
2026-04-30 19:41 27.38240 -99.01011 17649 ft 398 kts 156°
2026-04-30 19:41 27.35798 -98.99548 17528 ft 397 kts 156°
2026-04-30 19:41 27.33366 -98.98091 17407 ft 396 kts 156°
2026-04-30 19:41 27.30932 -98.96636 17277 ft 396 kts 156°
2026-04-30 19:42 27.28503 -98.95183 17154 ft 395 kts 156°
2026-04-30 19:42 27.26076 -98.93733 17029 ft 395 kts 156°
2026-04-30 19:42 27.23656 -98.92287 16913 ft 393 kts 156°
2026-04-30 19:42 27.21244 -98.90847 16784 ft 393 kts 156°
2026-04-30 19:43 27.18834 -98.89409 16652 ft 392 kts 156°
2026-04-30 19:43 27.16429 -98.87974 16528 ft 391 kts 156°
2026-04-30 19:43 27.14030 -98.86544 16392 ft 390 kts 156°
2026-04-30 19:44 27.09204 -98.83671 14961 ft 395 kts 156°
2026-04-30 19:44 27.06792 -98.82234 14449 ft 391 kts 156°
2026-04-30 19:44 27.04407 -98.80812 13957 ft 386 kts 155°
2026-04-30 19:44 27.02062 -98.79415 13442 ft 378 kts 155°
2026-04-30 19:45 26.99770 -98.78050 12959 ft 369 kts 155°
2026-04-30 19:45 26.97521 -98.76712 12491 ft 363 kts 155°
2026-04-30 19:45 26.95301 -98.75394 12035 ft 359 kts 155°
2026-04-30 19:45 26.93812 -98.74510 11718 ft 357 kts 155°
2026-04-30 19:46 26.90924 -98.72797 11121 ft 353 kts 155°
2026-04-30 19:46 26.88768 -98.71519 10776 ft 346 kts 154°
2026-04-30 19:46 26.86677 -98.70277 10653 ft 333 kts 154°
2026-04-30 19:46 26.84664 -98.69082 10504 ft 323 kts 154°
2026-04-30 19:47 26.82713 -98.67925 10469 ft 313 kts 154°
2026-04-30 19:47 26.81442 -98.67172 10392 ft 311 kts 154°
2026-04-30 19:47 26.78925 -98.65684 10240 ft 300 kts 154°
2026-04-30 19:47 26.77105 -98.64607 10108 ft 292 kts 154°
2026-04-30 19:48 26.75329 -98.63557 9959 ft 286 kts 154°
2026-04-30 19:48 26.73573 -98.62518 9665 ft 284 kts 154°
2026-04-30 19:48 26.71840 -98.61495 9404 ft 280 kts 154°
2026-04-30 19:48 26.70119 -98.60480 9111 ft 280 kts 154°
2026-04-30 19:49 26.68403 -98.59469 8810 ft 279 kts 154°
2026-04-30 19:49 26.65572 -98.57798 8337 ft 275 kts 153°
2026-04-30 19:49 26.63325 -98.56472 7954 ft 271 kts 153°
2026-04-30 19:50 26.62219 -98.55821 7752 ft 270 kts 153°
2026-04-30 19:50 26.60562 -98.54843 7474 ft 268 kts 153°
2026-04-30 19:50 26.58916 -98.53871 7201 ft 267 kts 153°
2026-04-30 19:50 26.57284 -98.52908 6926 ft 264 kts 153°
2026-04-30 19:51 26.55665 -98.51954 6640 ft 263 kts 153°
2026-04-30 19:51 26.54055 -98.51004 6368 ft 260 kts 153°
2026-04-30 19:51 26.52460 -98.50064 6098 ft 258 kts 153°
2026-04-30 19:51 26.50884 -98.49137 5838 ft 255 kts 153°
2026-04-30 19:52 26.49320 -98.48219 5566 ft 254 kts 152°
2026-04-30 19:52 26.48607 -98.47802 5444 ft 252 kts 153°
2026-04-30 19:52 26.48105 -98.47508 5372 ft 251 kts 152°
2026-04-30 19:52 26.46574 -98.46606 5118 ft 247 kts 152°
2026-04-30 19:53 26.45053 -98.45710 4848 ft 247 kts 152°
2026-04-30 19:53 26.43559 -98.44828 4669 ft 238 kts 152°
2026-04-30 19:53 26.42110 -98.43973 4392 ft 232 kts 152°
2026-04-30 19:53 26.40724 -98.43161 4272 ft 219 kts 152°
2026-04-30 19:54 26.39382 -98.42375 4171 ft 218 kts 152°
2026-04-30 19:54 26.38051 -98.41593 4083 ft 215 kts 152°
2026-04-30 19:54 26.36731 -98.40817 3988 ft 214 kts 152°
2026-04-30 19:54 26.35416 -98.40046 3917 ft 211 kts 152°
2026-04-30 19:55 26.34184 -98.39167 3831 ft 210 kts 143°
2026-04-30 19:55 26.33041 -98.38151 3584 ft 208 kts 141°
2026-04-30 19:55 26.31951 -98.37147 3366 ft 199 kts 141°
2026-04-30 19:55 26.30909 -98.36188 3142 ft 190 kts 141°
2026-04-30 19:56 26.29905 -98.35269 2927 ft 184 kts 141°
2026-04-30 19:56 26.28937 -98.34381 2772 ft 179 kts 141°
2026-04-30 19:56 26.27980 -98.33504 2538 ft 180 kts 141°
2026-04-30 19:56 26.27021 -98.32628 2306 ft 176 kts 140°
2026-04-30 19:57 26.26070 -98.31755 2077 ft 175 kts 140°
2026-04-30 19:57 26.25121 -98.30887 1847 ft 177 kts 140°
2026-04-30 19:57 26.24188 -98.30034 1609 ft 171 kts 140°
2026-04-30 19:57 26.23299 -98.29219 1374 ft 159 kts 140°
2026-04-30 19:58 26.22467 -98.28457 1188 ft 145 kts 140°
2026-04-30 19:58 26.21723 -98.27775 990 ft 137 kts 140°
2026-04-30 19:58 26.20994 -98.27108 813 ft 135 kts 139°
2026-04-30 19:58 26.20259 -98.26435 634 ft 139 kts 140°
2026-04-30 19:59 26.19519 -98.25756 457 ft 140 kts 140°
2026-04-30 19:59 26.18764 -98.25065 265 ft 138 kts 140°
2026-04-30 19:59 26.17341 -98.23765 111 ft 107 kts 141°
2026-04-30 20:00 26.17032 -98.23483 108 ft 25 kts 137°
2026-04-30 20:00 26.17025 -98.23382 103 ft 8 kts 54°
2026-04-30 20:00 26.17086 -98.23380 101 ft 10 kts 326°
2026-04-30 20:00 26.17150 -98.23436 102 ft 15 kts 320°
2026-04-30 20:01 26.17323 -98.23594 102 ft 16 kts 321°
2026-04-30 20:01 26.17407 -98.23669 107 ft 15 kts 322°
2026-04-30 20:01 26.17499 -98.23751 103 ft 19 kts 321°
2026-04-30 20:02 26.17711 -98.23946 102 ft 19 kts 321°
2026-04-30 20:02 26.17813 -98.24039 102 ft 19 kts 321°
2026-04-30 20:03 26.17983 -98.24091 100 ft 8 kts 13°
2026-04-30 20:03 26.18001 -98.24050 100 ft 5 kts 88°
2026-04-30 20:03 26.18001 -98.24031 100 ft 0 kts 88°